Location: Sternwarte Stuttgart
(48.7824°N, 9.1965°E)
Time: 13:24:20
(UTC+00:00)

Daily predictions for brighter satellites

Satellite Brightness Start Highest point End
(mag) Time Altitude Azimuth Time Altitude Azimuth Time Altitude Azimuth
Cosmos 2278 Rocket 2.8 16:42:54 10° S 16:48:05 38° ESE 16:53:19 10° NE
Unknown 4.2 16:45:21 10° W 16:49:24 48° N 16:53:26 10° ENE
CZ-4 R/B 2.2 16:47:13 10° SE 16:50:57 31° ENE 16:54:43 10° N
Unknown 4.2 16:47:02 10° W 16:51:04 48° N 16:55:05 10° ENE
Gbstr 26 Del rocket 4.1 16:45:43 10° WNW 16:51:23 83° SSW 16:58:25 10° ESE
Abrixas rocket 2.7 16:49:00 10° SW 16:51:57 44° SSE 16:54:55 10° E
Unknown 4.2 16:48:41 10° W 16:52:43 48° N 16:56:44 10° ENE
ATLAS CENTAUR R/B 3.8 16:51:22 10° NNW 16:53:01 12° N 16:54:38 10° NNE
Meteor 2-10 4.1 16:50:04 10° S 16:54:56 52° E 16:59:50 10° NNE
NOSS 3-2 (A) 4.3 16:50:53 10° SSE 16:55:36 27° ESE 17:00:47 10° ENE
Cosmos 1844 4.1 16:50:06 10° SW 16:55:49 69° WNW 17:01:37 10° NNE
Unknown 4.2 16:52:02 10° W 16:56:04 47° N 17:00:06 10° ENE
Starlink (trailer) 4.2 16:53:41 10° W 16:57:43 47° N 17:01:44 10° ENE
CSL-04 Rocket 4.2 16:53:42 10° SE 16:58:46 39° ENE 17:03:47 10° N
Unknown 4.3 16:55:25 10° W 16:59:25 47° N 17:03:27 10° ENE
Meteor 1-11 4.3 16:54:17 10° N 17:00:01 62° ENE 17:05:46 10° SSE
Unknown 4.3 16:57:04 10° W 17:01:06 47° N 17:05:06 10° ENE
FengYun 1-2 T 4.4 16:55:53 10° SE 17:01:17 51° ENE 17:06:41 10° N
Cosmos 2058 Rocket 3.0 16:57:12 10° S 17:01:30 66° E 17:05:51 10° NNE
SJ 16-02 3.2 16:59:38 10° NNE 17:01:47 13° NE 17:03:54 10° ENE
Cosmos 2084 Rocket 3.9 16:58:47 10° NW 17:03:04 45° NE 17:07:18 10° ESE
Unknown 4.3 17:02:07 10° WNW 17:06:08 46° N 17:09:59 11° ENE
Ariane Rocket 4.1 17:02:41 10° ESE 17:06:39 23° ENE 17:10:37 10° N
Cosmos 1953 3.5 17:02:50 10° SSW 17:06:46 47° WNW 17:10:43 10° N
YAOGAN 6 3.0 17:04:06 10° SE 17:07:31 39° ENE 17:10:54 10° N
Unknown 4.3 17:03:45 10° WNW 17:07:46 46° N 17:11:32 11° ENE
Unknown 4.3 17:05:28 10° WNW 17:09:28 46° N 17:13:11 12° ENE
Unknown 4.3 17:07:03 10° WNW 17:11:06 46° N 17:14:45 12° ENE
Unknown 3.9 17:08:23 10° WNW 17:12:07 48° N 17:15:18 13° E
Unknown 4.3 17:08:46 10° WNW 17:12:47 46° N 17:16:20 13° ENE
COSMO-SKYMED 1 2.9 17:09:26 10° NNE 17:13:37 44° E 17:17:46 10° S
Unknown 4.3 17:10:33 10° WNW 17:14:34 46° N 17:18:02 13° ENE
Cosmos 1833 Rocket 2.7 17:11:25 10° NNW 17:17:04 81° ENE 17:22:42 10° SSE
Unknown 4.3 17:13:54 10° WNW 17:17:54 45° N 17:21:14 14° ENE
Unknown 4.3 17:15:27 10° WNW 17:19:27 45° N 17:22:43 15° ENE
Cosmos 1339 Rocket 4.5 17:15:05 10° S 17:21:03 60° E 17:27:08 10° NNE
NOSS 3-2 (C) 4.3 17:17:17 10° SSE 17:22:01 27° ESE 17:27:00 11° ENE
Unknown 4.3 17:18:42 10° WNW 17:22:43 45° N 17:25:50 16° ENE
ASTEX 1 3.4 17:17:51 10° N 17:22:50 75° E 17:27:49 10° S
BREEZE-M DEB (TANK) 4.1 17:13:39 10° SW 17:25:14 40° SSE 17:28:14 16° E
Unknown 4.3 17:22:08 10° WNW 17:26:09 45° N 17:29:07 17° ENE
Cosmos 1777 Rocket 4.5 17:21:19 10° NNW 17:26:30 66° WSW 17:31:38 10° S
Okean-O 3.6 17:23:28 10° S 17:27:48 53° W 17:32:10 10° NNW
Unknown 4.3 17:23:49 10° WNW 17:27:48 45° N 17:30:43 17° ENE
CZ-4 R/B 4.3 17:24:40 10° SSE 17:28:47 78° ENE 17:32:55 10° N
Unknown 4.2 17:25:29 10° WNW 17:29:30 45° N 17:32:19 18° ENE
Unknown 4.2 17:27:11 10° WNW 17:31:12 46° N 17:33:56 18° ENE
Lacrosse 5 2.0 17:26:22 10° WNW 17:31:27 76° SW 17:36:29 10° SE
Unknown 3.8 17:30:02 10° WNW 17:33:21 51° SSW 17:36:20 12° SE
Cosmos 1076 Rocket 3.8 17:30:12 10° N 17:34:24 45° ENE 17:38:34 10° SSE
Unknown 4.2 17:30:32 10° WNW 17:34:32 46° N 17:37:08 20° ENE
Cosmos 1605 Rocket 4.0 17:28:35 10° N 17:34:48 89° WSW 17:40:55 10° S
Unknown 4.2 17:32:14 10° WNW 17:36:15 46° N 17:38:47 20° ENE
Cosmos 2058 3.5 17:32:51 10° N 17:36:45 35° ENE 17:40:36 10° SE
Unknown 3.8 17:33:37 10° WNW 17:37:27 52° NNE 17:39:36 23° E
SKYMED 3 4.5 17:33:17 10° NNE 17:37:39 76° ESE 17:42:00 10° S
Unknown 4.2 17:33:50 10° WNW 17:37:50 46° N 17:40:17 21° ENE
Cosmos 1300 3.2 17:34:24 10° SSE 17:37:52 34° E 17:41:22 10° NNE
Unknown 4.2 17:35:27 10° WNW 17:39:27 46° N 17:41:50 22° ENE
Unknown 4.2 17:37:11 10° WNW 17:41:12 46° N 17:43:30 22° ENE
Okean 3 Rocket 4.5 17:38:29 10° N 17:42:25 28° ENE 17:44:13 22° ESE
Unknown 4.2 17:38:40 10° WNW 17:42:40 46° N 17:44:55 23° ENE
Unknown 4.2 17:41:58 10° WNW 17:46:00 46° N 17:48:05 24° ENE
FALCON 9 DEB 3.9 17:42:44 10° WNW 17:46:06 48° SSW 17:48:30 17° SE
ATLAS 3B R/B 3.4 17:41:26 10° S 17:47:04 29° ESE 17:50:13 20° ENE
CZ-2D R/B 3.4 17:43:33 10° SSE 17:47:18 51° ENE 17:51:05 10° N
Unknown 4.2 17:43:38 10° WNW 17:47:39 46° N 17:49:41 25° ENE
CSL-04 Debris 4.2 17:42:54 10° SSE 17:48:23 90° WSW 17:53:55 10° NNW
SL-27 R/B 4.4 17:46:19 10° NNE 17:47:30 15° NNE 17:47:30 15° NNE
Unknown 4.2 17:45:32 10° WNW 17:49:34 47° N 17:51:29 27° ENE
Cosmos 1727 Rocket 3.9 17:43:39 10° S 17:49:45 68° E 17:55:54 10° NNE
Cosmos 2082 Rocket 2.3 17:44:24 10° NNW 17:50:09 83° WSW 17:55:50 10° SSE
Unknown 4.2 17:47:01 10° WNW 17:51:03 47° N 17:52:55 27° ENE
Cosmos 2173 Rocket 4.1 17:45:32 10° N 17:51:37 51° ENE 17:57:35 10° SSE
Cosmos 1812 Rocket 3.5 17:47:50 10° S 17:52:14 68° E 17:56:41 10° NNE
Unknown 4.2 17:48:39 10° WNW 17:52:41 47° N 17:54:29 28° ENE
Cosmos 1939 Rocket 2.9 17:48:53 10° SSE 17:52:48 54° ENE 17:56:48 10° N
Cosmos 2151 3.9 17:49:22 10° N 17:53:07 28° ENE 17:53:14 28° ENE
IRS-1A Rocket 4.4 17:48:01 10° SE 17:53:17 48° ENE 17:58:35 10° N
CENTAUR R/B 3.1 17:48:34 10° S 17:53:47 32° ESE 17:56:59 22° ENE
Unknown 4.0 17:51:14 10° WNW 17:55:12 50° N 17:56:45 31° ENE
Unknown 4.2 17:52:01 10° WNW 17:56:03 47° N 17:57:42 30° ENE
Unknown 4.1 17:53:38 10° WNW 17:57:40 47° N 17:59:15 31° ENE
Unknown 4.1 17:55:20 10° WNW 17:59:22 48° N 18:00:52 32° ENE
BREEZE-M DEB (TANK) 2.6 17:55:32 10° SW 17:59:26 43° SSE 17:59:43 42° SE
Falcon 9 debris 4.5 17:56:23 10° WNW 17:59:33 35° SW 18:01:35 18° SSE
Unknown 4.1 17:57:01 10° WNW 18:01:03 48° N 18:02:29 33° ENE
SKYMED 2 4.0 17:57:25 10° N 18:01:45 63° WNW 18:06:01 10° SSW
Envisat 4.3 17:57:53 10° S 18:02:42 42° W 18:07:33 10° NNW
YAOGAN 1 3.0 17:58:33 10° S 18:02:51 65° WSW 18:07:11 10° NNW
Cosmos 1802 Rocket 4.2 17:56:50 10° N 18:03:07 52° ENE 18:09:20 10° SSE
Unknown 4.2 18:00:04 10° WNW 18:03:25 42° SW 18:05:02 25° SSE
Unknown 4.1 18:00:23 10° WNW 18:04:25 49° N 18:05:42 35° ENE
Unknown 4.0 18:00:52 10° WNW 18:04:52 50° N 18:06:04 37° ENE
Unknown 4.1 18:01:21 10° WNW 18:05:24 49° N 18:06:38 36° ENE
Unknown 4.0 18:02:08 10° WNW 18:06:11 50° N 18:07:23 37° ENE
Cosmos 44 3.4 18:02:06 10° SSW 18:06:50 48° ESE 18:08:22 35° ENE
Unknown 4.0 18:03:55 10° WNW 18:07:59 50° N 18:09:06 38° ENE
Unknown 4.1 18:07:03 10° WNW 18:11:07 50° N 18:12:06 40° NE
Cosmos 1898 Rocket 3.4 18:06:07 10° NNW 18:11:25 68° ENE 18:14:40 24° SE
H-2A R/B 2.9 18:11:49 30° ENE 18:12:04 30° ENE 18:16:45 10° N
Unknown 3.3 18:08:29 10° WNW 18:12:14 83° SSW 18:12:58 55° SE
In-Cosmos 22 Rocket 4.0 18:07:29 10° N 18:12:54 70° ENE 18:18:25 10° SSE
Cosmos 1000 Rocket 4.5 18:07:30 10° S 18:13:33 57° E 18:19:40 10° NNE
BREEZE M DEB (TANK) 3.8 18:11:56 10° W 18:14:26 30° SSW 18:17:54 16° SSE
Unknown 4.0 18:10:23 10° WNW 18:14:26 51° N 18:15:17 43° NE
Cosmos 1725 Rocket 4.3 18:09:06 10° N 18:15:05 43° ENE 18:17:33 31° ESE
Unknown 4.0 18:12:01 10° WNW 18:16:05 51° N 18:16:51 44° NE
ATLAS 5 CENTAUR R/B 4.0 18:13:32 10° WNW 18:16:51 18° NNW 18:20:25 10° NNE
Unknown 4.0 18:13:42 10° WNW 18:17:46 51° N 18:18:28 45° NE
Meteor 2-1 Rocket 4.1 18:12:27 10° S 18:17:53 63° E 18:23:25 10° NNE
Unknown 3.9 18:15:20 10° WNW 18:19:23 52° N 18:20:02 47° NE
Cosmos 2100 Rocket 3.9 18:14:34 10° N 18:20:48 86° E 18:26:57 10° S
USA 116 4.2 18:19:15 10° N 18:22:25 50° WNW 18:25:49 10° SSW
USA 238 DEB 3.7 18:16:34 10° SW 18:23:18 82° NW 18:29:24 14° NE
USA 238 3.7 18:16:40 10° SW 18:23:24 82° NW 18:29:28 15° NE
CZ-4 R/B 3.5 18:22:17 10° SSW 18:25:57 29° W 18:29:41 10° NNW
Unknown 3.9 18:22:02 10° WNW 18:26:07 54° NNE 18:26:27 52° NNE
Abrixas rocket 2.8 18:24:40 10° W 18:27:03 50° W 18:27:03 50° W
Unknown 3.8 18:23:43 10° WNW 18:27:48 54° NNE 18:28:04 53° NNE
Unknown 3.8 18:25:21 10° WNW 18:29:27 55° NNE 18:29:39 54° NNE
Unknown 3.8 18:27:00 10° WNW 18:31:05 56° NNE 18:31:13 55° NNE
Cosmos 2278 Rocket 3.4 18:26:46 10° WSW 18:32:09 42° NW 18:37:33 10° NNE
Unknown 3.8 18:28:39 10° WNW 18:32:45 56° NNE 18:32:48 56° NNE
ATLAS CENTAUR R/B 3.1 18:30:01 10° NNW 18:33:06 22° NNE 18:33:06 22° NNE
Unknown 3.9 18:31:59 10° WNW 18:36:01 57° N 18:36:01 57° N
Cosmos 2016 Rocket 3.9 18:30:26 10° N 18:36:45 75° E 18:41:16 20° SSE
Cosmos 2297 3.6 18:31:15 10° SSW 18:36:57 83° ESE 18:41:31 17° NNE
Starlink (trailer) 3.9 18:33:38 10° WNW 18:37:35 58° N 18:37:35 58° N
Unknown 3.9 18:35:21 10° WNW 18:39:13 58° N 18:39:13 58° N
Unknown 3.9 18:37:00 10° WNW 18:40:49 58° N 18:40:49 58° N
SJ 16-02 1.2 18:36:41 10° NNW 18:41:02 84° NE 18:41:02 84° NE
Ariane Rocket 3.5 18:40:12 10° S 18:45:13 59° WSW 18:50:18 10° NNW
SL-08 R/B 4.3 18:39:28 10° N 18:45:36 73° E 18:47:43 43° SSE
NOSS 3-2 (A) 3.6 18:39:55 10° SW 18:45:47 70° NW 18:50:13 22° NE
ARGOS 3.5 18:46:31 48° NE 18:46:31 48° NE 18:51:10 10° N
Unknown 4.0 18:42:01 10° WNW 18:45:38 56° NNW 18:45:38 56° NNW
Unknown 4.1 18:43:39 10° WNW 18:47:11 55° NNW 18:47:11 55° NNW
Unknown 4.1 18:45:22 10° WNW 18:48:50 54° NNW 18:48:50 54° NNW
Cosmos 468 Rocket 3.9 18:44:52 10° SSW 18:50:08 88° ESE 18:52:10 39° NNE
Unknown 4.2 18:46:50 10° WNW 18:49:50 50° W 18:49:50 50° W
Unknown 4.2 18:46:56 10° WNW 18:50:24 54° NNW 18:50:24 54° NNW
Unknown 4.3 18:48:39 10° WNW 18:51:59 52° NW 18:51:59 52° NW
Cosmos 1892 4.0 18:49:54 10° NNW 18:52:12 34° NNW 18:52:12 34° NNW
Unknown 4.3 18:50:25 10° WNW 18:53:41 51° NW 18:53:41 51° NW
Unknown 4.4 18:53:44 10° WNW 18:56:52 48° NW 18:56:52 48° NW
Cosmos 2150 Rocket 4.5 18:53:18 10° NNW 18:57:43 49° NNE 18:57:43 49° NNE
ADEOS Rocket 3.4 18:53:50 10° NNE 19:01:25 61° E 19:03:33 45° SSE
Cosmos 1937 Rocket 3.7 18:56:20 10° NNW 19:01:26 66° WSW 19:02:15 57° SSW
Cosmos 1766 Rocket 4.3 19:02:44 10° NNW 19:06:19 51° WNW 19:06:19 51° WNW
CZ-2C R/B 3.9 19:13:11 45° NNE 19:13:11 45° NNE 19:17:16 10° N
NOSS 3-2 (C) 3.6 19:06:21 10° SW 19:12:14 71° NW 19:14:29 42° NNE
Lacrosse 5 4.2 19:10:31 10° W 19:13:42 17° WSW 19:16:09 12° SSW
Cosmos 2061 Rocket 4.5 19:09:09 10° NNW 19:15:15 57° W 19:19:54 17° SSW
Cosmos 1238 Rocket 4.3 19:08:44 10° N 19:14:03 53° NNE 19:14:03 53° NNE
Resurs 01 Rocket 4.1 19:29:47 15° N 19:29:47 15° N 19:30:32 10° N
Cosmos 1763 Rocket 4.2 19:21:16 10° SW 19:25:17 48° WSW 19:25:17 48° WSW
Cosmos 2227 Rocket 4.5 19:27:26 10° N 19:28:51 13° NNE 19:28:51 13° NNE
Cosmos 2297 Rocket 4.5 19:31:53 10° N 19:33:19 13° NNE 19:33:19 13° NNE
SPOT 3 Rocket 4.4 19:36:38 48° WNW 19:36:38 48° WNW 19:40:54 10° NNW
ATLAS 3B R/B 2.7 19:30:33 10° SW 19:37:15 72° NW 19:37:31 71° NNW
CENTAUR R/B 2.9 19:37:49 10° SW 19:43:56 64° NW 19:44:14 64° NNW
H-2A R/B 3.3 19:52:28 40° WNW 19:52:28 40° WNW 19:56:31 10° NNW
ATLAS 5 CENTAUR R/B 4.3 19:59:54 10° NNW 20:01:57 16° N 20:01:57 16° N
ATLAS CENTAUR R/B 4.5 20:08:42 10° NW 20:09:18 13° NW 20:09:18 13° NW
SJ 16-02 4.5 20:17:34 10° WNW 20:18:03 11° W 20:18:03 11° W
